Wetterdaten: Montag, 25.04.2016
Datum Zeit Auen-Temp. Temp gefhlt Luftfeuchte Luftdruck Regen Wind Richtung Richtung Sonnenschein Taupunkt Windben
25.04.2016 00:00 -0,3 C -0,8 C 88 % 1010,7 hPa 0,0 mm 6,3 km/h (2 Bft) W 270 0 min -2,0 C 8,9 km/h (2 Bft)
25.04.2016 00:05 -0,3 C -0,9 C 88 % 1010,7 hPa 0,0 mm 7,2 km/h (2 Bft) W 270 0 min -2,0 C 8,3 km/h (2 Bft)
25.04.2016 00:10 -0,4 C -0,8 C 88 % 1010,7 hPa 0,0 mm 6,3 km/h (2 Bft) NW 315 0 min -2,1 C 11,9 km/h (2 Bft)
25.04.2016 00:15 -0,5 C -0,8 C 84 % 1010,8 hPa 0,0 mm 5,7 km/h (1 Bft) W-SW 247 0 min -2,9 C 6,9 km/h (2 Bft)
25.04.2016 00:20 -0,5 C -0,9 C 88 % 1010,8 hPa 0,0 mm 5,7 km/h (1 Bft) W-NW 292 0 min -2,2 C 3,0 km/h (1 Bft)
25.04.2016 00:25 -0,5 C -0,9 C 88 % 1010,8 hPa 0,0 mm 5,7 km/h (1 Bft) NO 45 0 min -2,2 C 14,3 km/h (3 Bft)
25.04.2016 00:30 -0,5 C -0,9 C 88 % 1010,8 hPa 0,0 mm 5,7 km/h (1 Bft) S-SW 202 0 min -2,2 C 12,5 km/h (3 Bft)
25.04.2016 00:35 -0,6 C -0,8 C 88 % 1010,8 hPa 0,0 mm 3,9 km/h (1 Bft) W-SW 247 0 min -2,3 C 0,0 km/h (0 Bft)
25.04.2016 00:40 -0,6 C -0,8 C 88 % 1010,8 hPa 0,0 mm 2,4 km/h (1 Bft) NW 315 0 min -2,3 C 8,6 km/h (2 Bft)
25.04.2016 00:45 -0,6 C -0,8 C 84 % 1010,8 hPa 0,0 mm 3,0 km/h (1 Bft) N-NO 22 0 min -3,0 C 5,1 km/h (1 Bft)
25.04.2016 00:50 -0,6 C -0,8 C 84 % 1010,8 hPa 0,0 mm 3,3 km/h (1 Bft) W 270 0 min -3,0 C 0,0 km/h (0 Bft)
25.04.2016 00:55 -0,6 C -0,8 C 84 % 1010,7 hPa 0,0 mm 3,9 km/h (1 Bft) W-SW 247 0 min -3,0 C 4,2 km/h (1 Bft)
25.04.2016 01:00 -0,6 C -0,8 C 84 % 1010,7 hPa 0,0 mm 3,6 km/h (1 Bft) SO 135 0 min -3,0 C 5,4 km/h (1 Bft)
25.04.2016 01:05 -0,6 C -0,8 C 84 % 1010,7 hPa 0,0 mm 3,3 km/h (1 Bft) W-SW 247 0 min -3,0 C 0,0 km/h (0 Bft)
25.04.2016 01:10 -0,6 C -0,8 C 88 % 1010,7 hPa 0,0 mm 3,3 km/h (1 Bft) W-SW 247 0 min -2,3 C 8,0 km/h (2 Bft)
25.04.2016 01:15 -0,6 C -0,8 C 84 % 1010,9 hPa 0,0 mm 3,3 km/h (1 Bft) W-SW 247 0 min -3,0 C 8,0 km/h (2 Bft)
25.04.2016 01:20 -0,6 C -0,9 C 88 % 1010,9 hPa 0,0 mm 3,9 km/h (1 Bft) W-SW 247 0 min -2,3 C 4,5 km/h (1 Bft)
25.04.2016 01:25 -0,7 C -1,1 C 88 % 1010,9 hPa 0,0 mm 4,8 km/h (1 Bft) S 180 0 min -2,4 C 3,3 km/h (1 Bft)
25.04.2016 01:30 -0,8 C -1,0 C 87 % 1010,9 hPa 0,0 mm 4,2 km/h (1 Bft) W-SW 247 0 min -2,7 C 4,8 km/h (1 Bft)
25.04.2016 01:35 -0,8 C -1,1 C 87 % 1010,8 hPa 0,0 mm 3,0 km/h (1 Bft) W 270 0 min -2,7 C 3,0 km/h (1 Bft)
25.04.2016 01:40 -0,8 C -1,1 C 87 % 1010,8 hPa 0,0 mm 2,4 km/h (1 Bft) S 180 0 min -2,7 C 3,9 km/h (1 Bft)
25.04.2016 01:45 -0,8 C -1,1 C 87 % 1010,8 hPa 0,0 mm 1,5 km/h (1 Bft) W 270 0 min -2,7 C 0,0 km/h (0 Bft)
25.04.2016 01:50 -0,8 C -1,1 C 87 % 1010,8 hPa 0,0 mm 2,1 km/h (1 Bft) SW 225 0 min -2,7 C 5,4 km/h (1 Bft)
25.04.2016 01:55 -0,8 C -1,1 C 87 % 1010,6 hPa 0,0 mm 3,0 km/h (1 Bft) W 270 0 min -2,7 C 3,0 km/h (1 Bft)
25.04.2016 02:00 -0,8 C -1,1 C 87 % 1010,6 hPa 0,0 mm 2,4 km/h (1 Bft) W 270 0 min -2,7 C 0,0 km/h (0 Bft)
25.04.2016 02:05 -0,8 C -1,1 C 87 % 1010,6 hPa 0,0 mm 1,8 km/h (1 Bft) W-NW 292 0 min -2,7 C 0,0 km/h (0 Bft)
25.04.2016 02:10 -0,8 C -1,1 C 87 % 1010,6 hPa 0,0 mm 1,8 km/h (1 Bft) W-SW 247 0 min -2,7 C 8,0 km/h (2 Bft)
25.04.2016 02:15 -0,8 C -1,1 C 87 % 1010,6 hPa 0,0 mm 1,2 km/h (1 Bft) S-SW 202 0 min -2,7 C 0,0 km/h (0 Bft)
25.04.2016 02:18 -0,9 C -1,2 C 87 % 1010,6 hPa 0,0 mm 0,3 km/h (0 Bft) S-SW 202 0 min -2,8 C 0,0 km/h (0 Bft)
25.04.2016 02:20 -0,9 C -1,2 C 87 % 1010,6 hPa 0,0 mm 0,3 km/h (0 Bft) S-SW 202 0 min -2,8 C 0,0 km/h (0 Bft)
25.04.2016 02:25 -0,8 C -1,1 C 87 % 1010,6 hPa 0,0 mm 0,9 km/h (0 Bft) S-SW 202 0 min -2,7 C 4,8 km/h (1 Bft)
25.04.2016 02:30 -0,8 C -1,1 C 88 % 1010,6 hPa 0,0 mm 1,5 km/h (1 Bft) SW 225 0 min -2,5 C 4,2 km/h (1 Bft)
25.04.2016 02:35 -0,8 C -1,0 C 88 % 1010,4 hPa 0,0 mm 1,5 km/h (1 Bft) W 270 0 min -2,5 C 5,1 km/h (1 Bft)
25.04.2016 02:40 -0,8 C -1,0 C 88 % 1010,4 hPa 0,0 mm 1,5 km/h (1 Bft) S 180 0 min -2,5 C 8,9 km/h (2 Bft)
25.04.2016 02:45 -0,7 C -1,0 C 88 % 1010,4 hPa 0,0 mm 2,7 km/h (1 Bft) W-SW 247 0 min -2,4 C 0,0 km/h (0 Bft)
25.04.2016 02:50 -0,7 C -0,9 C 88 % 1010,4 hPa 0,0 mm 2,4 km/h (1 Bft) NO 45 0 min -2,4 C 0,0 km/h (0 Bft)
25.04.2016 02:55 -0,6 C -0,8 C 88 % 1010,3 hPa 0,0 mm 2,4 km/h (1 Bft) S-SW 202 0 min -2,3 C 14,6 km/h (3 Bft)
25.04.2016 03:00 -0,6 C -0,8 C 88 % 1010,3 hPa 0,0 mm 3,6 km/h (1 Bft) W-SW 247 0 min -2,3 C 5,7 km/h (1 Bft)
25.04.2016 03:05 -0,6 C -0,8 C 88 % 1010,3 hPa 0,0 mm 3,9 km/h (1 Bft) S 180 0 min -2,3 C 3,0 km/h (1 Bft)
25.04.2016 03:10 -0,6 C -0,8 C 85 % 1010,3 hPa 0,0 mm 2,1 km/h (1 Bft) W-SW 247 0 min -2,8 C 3,9 km/h (1 Bft)
25.04.2016 03:15 -0,6 C -1,1 C 85 % 1010,2 hPa 0,0 mm 6,6 km/h (2 Bft) W 270 0 min -2,8 C 18,2 km/h (3 Bft)
25.04.2016 03:20 -0,6 C -1,4 C 85 % 1010,2 hPa 0,0 mm 9,8 km/h (2 Bft) W-NW 292 0 min -2,8 C 20,9 km/h (4 Bft)
25.04.2016 03:25 -0,6 C -1,4 C 85 % 1010,2 hPa 0,0 mm 9,8 km/h (2 Bft) SW 225 0 min -2,8 C 21,2 km/h (4 Bft)
25.04.2016 03:30 -0,6 C -1,3 C 85 % 1010,2 hPa 0,0 mm 9,2 km/h (2 Bft) W 270 0 min -2,8 C 10,7 km/h (2 Bft)
25.04.2016 03:35 -0,6 C -1,0 C 88 % 1010,1 hPa 0,0 mm 5,1 km/h (1 Bft) SW 225 0 min -2,3 C 3,0 km/h (1 Bft)
25.04.2016 03:40 -0,6 C -0,9 C 87 % 1010,1 hPa 0,0 mm 3,9 km/h (1 Bft) W-SW 247 0 min -2,5 C 9,5 km/h (2 Bft)
25.04.2016 03:45 -0,7 C -1,2 C 87 % 1010,1 hPa 0,0 mm 5,7 km/h (1 Bft) W 270 0 min -2,6 C 23,2 km/h (4 Bft)
25.04.2016 03:50 -0,7 C -1,4 C 87 % 1010,1 hPa 0,0 mm 7,7 km/h (2 Bft) W 270 0 min -2,6 C 9,5 km/h (2 Bft)
25.04.2016 03:55 -0,7 C -1,4 C 88 % 1010,1 hPa 0,0 mm 7,7 km/h (2 Bft) W 270 0 min -2,4 C 12,8 km/h (3 Bft)
25.04.2016 04:00 -0,7 C -1,2 C 88 % 1010,1 hPa 0,0 mm 6,0 km/h (2 Bft) W 270 0 min -2,4 C 6,0 km/h (2 Bft)
25.04.2016 04:05 -0,8 C -1,4 C 88 % 1010,1 hPa 0,0 mm 6,9 km/h (2 Bft) NW 315 0 min -2,5 C 24,7 km/h (4 Bft)
25.04.2016 04:10 -0,7 C -1,4 C 88 % 1010,1 hPa 0,0 mm 7,2 km/h (2 Bft) NW 315 0 min -2,4 C 10,4 km/h (2 Bft)
25.04.2016 04:15 -0,7 C -1,4 C 88 % 1010,0 hPa 0,0 mm 8,3 km/h (2 Bft) W 270 0 min -2,4 C 11,3 km/h (2 Bft)
25.04.2016 04:20 -0,7 C -1,4 C 88 % 1010,0 hPa 0,0 mm 8,3 km/h (2 Bft) NW 315 0 min -2,4 C 8,3 km/h (2 Bft)
25.04.2016 04:25 -0,8 C -1,6 C 88 % 1010,0 hPa 0,0 mm 8,9 km/h (2 Bft) SW 225 0 min -2,5 C 10,4 km/h (2 Bft)
25.04.2016 04:30 -0,9 C -1,6 C 84 % 1010,0 hPa 0,0 mm 8,9 km/h (2 Bft) NW 315 0 min -3,3 C 11,3 km/h (2 Bft)
25.04.2016 04:35 -0,9 C -1,4 C 84 % 1010,0 hPa 0,0 mm 6,9 km/h (2 Bft) W-NW 292 0 min -3,3 C 6,0 km/h (2 Bft)
25.04.2016 04:40 -0,9 C -1,3 C 84 % 1010,0 hPa 0,0 mm 6,6 km/h (2 Bft) W-NW 292 0 min -3,3 C 7,2 km/h (2 Bft)
25.04.2016 04:45 -0,9 C -1,3 C 88 % 1010,0 hPa 0,0 mm 5,7 km/h (1 Bft) N-NW 337 0 min -2,6 C 12,2 km/h (2 Bft)
25.04.2016 04:50 -1,0 C -1,4 C 88 % 1010,0 hPa 0,0 mm 5,7 km/h (1 Bft) NW 315 0 min -2,7 C 8,0 km/h (2 Bft)
25.04.2016 04:55 -1,0 C -1,2 C 88 % 1009,8 hPa 0,0 mm 3,0 km/h (1 Bft) SW 225 0 min -2,7 C 3,0 km/h (1 Bft)
25.04.2016 05:00 -1,0 C -1,3 C 88 % 1009,8 hPa 0,0 mm 0,6 km/h (0 Bft) W-NW 292 0 min -2,7 C 0,0 km/h (0 Bft)
25.04.2016 05:05 -1,0 C -1,3 C 88 % 1009,8 hPa 0,0 mm 1,5 km/h (1 Bft) NW 315 0 min -2,7 C 5,4 km/h (1 Bft)
25.04.2016 05:10 -1,0 C -1,3 C 88 % 1009,8 hPa 0,0 mm 1,8 km/h (1 Bft) W-NW 292 0 min -2,7 C 7,2 km/h (2 Bft)
25.04.2016 05:15 -1,0 C -1,3 C 88 % 1009,9 hPa 0,0 mm 2,4 km/h (1 Bft) W 270 0 min -2,7 C 0,0 km/h (0 Bft)
25.04.2016 05:18 -1,0 C -1,2 C 88 % 1009,9 hPa 0,0 mm 1,2 km/h (1 Bft) W 270 0 min -2,7 C 0,0 km/h (0 Bft)
25.04.2016 05:19 -1,0 C -1,2 C 88 % 1009,9 hPa 0,0 mm 1,2 km/h (1 Bft) W 270 0 min -2,7 C 0,0 km/h (0 Bft)
25.04.2016 05:25 -1,1 C -1,3 C 85 % 1009,9 hPa 0,0 mm 0,3 km/h (0 Bft) SW 225 0 min -3,3 C 4,2 km/h (1 Bft)
25.04.2016 05:30 -1,1 C -1,3 C 85 % 1009,9 hPa 0,0 mm 0,6 km/h (0 Bft) NW 315 0 min -3,3 C 3,3 km/h (1 Bft)
25.04.2016 05:35 -1,1 C -1,3 C 85 % 1009,8 hPa 0,0 mm 1,8 km/h (1 Bft) W-NW 292 0 min -3,3 C 0,0 km/h (0 Bft)
25.04.2016 05:40 -1,1 C -1,3 C 85 % 1009,8 hPa 0,0 mm 1,8 km/h (1 Bft) SO 135 0 min -3,3 C 3,3 km/h (1 Bft)
25.04.2016 05:45 -1,1 C -1,3 C 85 % 1009,8 hPa 0,0 mm 2,7 km/h (1 Bft) W 270 0 min -3,3 C 8,0 km/h (2 Bft)
25.04.2016 05:50 -1,1 C -1,3 C 85 % 1009,8 hPa 0,0 mm 3,0 km/h (1 Bft) SW 225 0 min -3,3 C 4,2 km/h (1 Bft)
25.04.2016 05:55 -1,0 C -1,3 C 88 % 1009,6 hPa 0,0 mm 3,9 km/h (1 Bft) W 270 0 min -2,7 C 3,6 km/h (1 Bft)
25.04.2016 06:00 -1,0 C -1,4 C 85 % 1009,6 hPa 0,0 mm 5,7 km/h (1 Bft) NW 315 0 min -3,2 C 11,0 km/h (2 Bft)
25.04.2016 06:05 -1,2 C -1,9 C 88 % 1009,6 hPa 0,0 mm 8,9 km/h (2 Bft) N-NW 337 0 min -2,9 C 14,0 km/h (3 Bft)
25.04.2016 06:10 -1,5 C -2,5 C 88 % 1009,6 hPa 0,0 mm 12,2 km/h (2 Bft) NW 315 0 min -3,2 C 15,2 km/h (3 Bft)
25.04.2016 06:15 -1,6 C -2,3 C 88 % 1010,1 hPa 0,0 mm 8,3 km/h (2 Bft) W-NW 292 0 min -3,3 C 3,9 km/h (1 Bft)
25.04.2016 06:20 -1,6 C -2,2 C 88 % 1010,1 hPa 0,0 mm 6,6 km/h (2 Bft) NW 315 0 min -3,3 C 8,6 km/h (2 Bft)
25.04.2016 06:25 -1,6 C -2,0 C 88 % 1010,1 hPa 0,0 mm 5,7 km/h (1 Bft) NW 315 0 min -3,3 C 9,5 km/h (2 Bft)
25.04.2016 06:30 -1,6 C -2,1 C 88 % 1010,1 hPa 0,0 mm 6,0 km/h (2 Bft) W-NW 292 0 min -3,3 C 5,4 km/h (1 Bft)
25.04.2016 06:35 -1,6 C -1,9 C 85 % 1009,9 hPa 0,0 mm 5,4 km/h (1 Bft) W-NW 292 0 min -3,8 C 5,1 km/h (1 Bft)
25.04.2016 06:40 -1,6 C -1,9 C 85 % 1009,9 hPa 0,0 mm 4,8 km/h (1 Bft) NW 315 0 min -3,8 C 8,6 km/h (2 Bft)
25.04.2016 06:45 -1,6 C -1,6 C 85 % 1009,9 hPa 0,0 mm 3,6 km/h (1 Bft) W-NW 292 0 min -3,8 C 9,5 km/h (2 Bft)
25.04.2016 06:50 -1,6 C -1,6 C 85 % 1009,9 hPa 0,0 mm 4,2 km/h (1 Bft) W 270 0 min -3,8 C 8,0 km/h (2 Bft)
25.04.2016 06:55 -1,6 C -2,0 C 85 % 1010,3 hPa 0,0 mm 6,9 km/h (2 Bft) W 270 0 min -3,8 C 7,2 km/h (2 Bft)
25.04.2016 07:00 -1,6 C -1,9 C 85 % 1010,3 hPa 0,0 mm 6,9 km/h (2 Bft) W 270 0 min -3,8 C 6,9 km/h (2 Bft)
25.04.2016 07:05 -1,5 C -1,7 C 85 % 1010,3 hPa 0,0 mm 6,3 km/h (2 Bft) W-NW 292 0 min -3,7 C 8,3 km/h (2 Bft)
25.04.2016 07:10 -1,5 C -1,6 C 85 % 1010,3 hPa 0,0 mm 6,3 km/h (2 Bft) N-NW 337 0 min -3,7 C 16,4 km/h (3 Bft)
25.04.2016 07:15 -1,3 C -1,7 C 85 % 1010,4 hPa 0,0 mm 9,2 km/h (2 Bft) W-SW 247 0 min -3,5 C 11,6 km/h (2 Bft)
25.04.2016 07:20 -1,3 C -1,7 C 85 % 1010,4 hPa 0,0 mm 11,0 km/h (2 Bft) NW 315 0 min -3,5 C 20,0 km/h (4 Bft)
25.04.2016 07:25 -1,2 C -1,6 C 85 % 1010,4 hPa 0,0 mm 11,3 km/h (2 Bft) W 270 0 min -3,4 C 8,3 km/h (2 Bft)
25.04.2016 07:30 -1,1 C -1,5 C 85 % 1010,4 hPa 0,0 mm 11,3 km/h (2 Bft) N-NW 337 0 min -3,3 C 10,4 km/h (2 Bft)
25.04.2016 07:35 -1,0 C -1,2 C 85 % 1010,6 hPa 0,0 mm 10,7 km/h (2 Bft) W-SW 247 0 min -3,2 C 6,9 km/h (2 Bft)
25.04.2016 07:40 -1,0 C -1,2 C 85 % 1010,6 hPa 0,0 mm 11,6 km/h (2 Bft) W 270 0 min -3,2 C 11,0 km/h (2 Bft)
25.04.2016 07:45 -0,9 C -0,7 C 85 % 1010,6 hPa 0,0 mm 9,8 km/h (2 Bft) W-SW 247 0 min -3,1 C 10,1 km/h (2 Bft)
25.04.2016 07:50 -0,9 C -0,8 C 85 % 1010,6 hPa 0,0 mm 9,8 km/h (2 Bft) W 270 0 min -3,1 C 11,9 km/h (2 Bft)
25.04.2016 07:55 -0,7 C -0,6 C 85 % 1010,7 hPa 0,0 mm 9,2 km/h (2 Bft) W 270 0 min -2,9 C 9,8 km/h (2 Bft)
25.04.2016 08:00 -0,7 C -0,3 C 85 % 1010,7 hPa 0,0 mm 7,7 km/h (2 Bft) N-NO 22 0 min -2,9 C 8,3 km/h (2 Bft)
25.04.2016 08:05 -0,6 C -0,3 C 84 % 1010,7 hPa 0,0 mm 9,2 km/h (2 Bft) W-SW 247 0 min -3,0 C 19,1 km/h (3 Bft)
25.04.2016 08:10 -0,7 C -0,6 C 84 % 1010,7 hPa 0,0 mm 10,4 km/h (2 Bft) NW 315 0 min -3,1 C 16,7 km/h (3 Bft)
25.04.2016 08:15 -0,7 C -0,8 C 84 % 1010,9 hPa 0,0 mm 12,2 km/h (2 Bft) W 270 0 min -3,1 C 9,5 km/h (2 Bft)
25.04.2016 08:18 -0,7 C -0,8 C 84 % 1010,9 hPa 0,0 mm 11,0 km/h (2 Bft) NW 315 0 min -3,1 C 12,8 km/h (3 Bft)
25.04.2016 08:20 -0,7 C -0,8 C 84 % 1010,9 hPa 0,0 mm 11,0 km/h (2 Bft) NW 315 0 min -3,1 C 12,8 km/h (3 Bft)
25.04.2016 08:25 -0,7 C -0,5 C 84 % 1010,9 hPa 0,0 mm 10,4 km/h (2 Bft) W 270 0 min -3,1 C 20,3 km/h (4 Bft)
25.04.2016 08:30 -0,7 C -0,5 C 84 % 1010,9 hPa 0,0 mm 10,4 km/h (2 Bft) W 270 0 min -3,1 C 11,9 km/h (2 Bft)
25.04.2016 08:35 -0,7 C -0,7 C 83 % 1011,2 hPa 0,0 mm 12,2 km/h (2 Bft) W 270 0 min -3,2 C 25,3 km/h (4 Bft)
25.04.2016 08:40 -0,7 C -0,5 C 83 % 1011,2 hPa 0,0 mm 11,3 km/h (2 Bft) NW 315 0 min -3,2 C 13,4 km/h (3 Bft)
25.04.2016 08:45 -0,5 C 0,1 C 83 % 1011,2 hPa 0,0 mm 9,8 km/h (2 Bft) SW 225 0 min -3,0 C 14,0 km/h (3 Bft)
25.04.2016 08:50 -0,5 C 0,4 C 83 % 1011,2 hPa 0,0 mm 8,9 km/h (2 Bft) S 180 0 min -3,0 C 8,9 km/h (2 Bft)
25.04.2016 08:55 -0,3 C 0,6 C 83 % 1011,4 hPa 0,0 mm 8,6 km/h (2 Bft) W 270 0 min -2,8 C 17,9 km/h (3 Bft)
25.04.2016 09:00 -0,3 C 0,6 C 82 % 1011,4 hPa 0,0 mm 9,5 km/h (2 Bft) W-SW 247 0 min -3,0 C 7,2 km/h (2 Bft)
25.04.2016 09:05 -0,2 C 0,8 C 82 % 1011,4 hPa 0,0 mm 9,2 km/h (2 Bft) W 270 0 min -2,9 C 11,6 km/h (2 Bft)
25.04.2016 09:10 -0,2 C 0,9 C 81 % 1011,4 hPa 0,0 mm 8,9 km/h (2 Bft) W-SW 247 0 min -3,1 C 8,0 km/h (2 Bft)
25.04.2016 09:15 -0,1 C 1,1 C 81 % 1011,6 hPa 0,0 mm 10,4 km/h (2 Bft) W 270 0 min -3,0 C 8,9 km/h (2 Bft)
25.04.2016 09:20 0,0 C 1,4 C 81 % 1011,6 hPa 0,0 mm 11,0 km/h (2 Bft) W-NW 292 0 min -2,9 C 12,5 km/h (3 Bft)
25.04.2016 09:25 0,3 C 1,7 C 80 % 1011,6 hPa 0,0 mm 11,3 km/h (2 Bft) W-SW 247 0 min -2,7 C 15,8 km/h (3 Bft)
25.04.2016 09:30 0,0 C 1,1 C 79 % 1011,6 hPa 0,0 mm 12,2 km/h (2 Bft) W-NW 292 0 min -3,2 C 22,4 km/h (4 Bft)
25.04.2016 09:35 -0,1 C 1,1 C 79 % 1011,8 hPa 0,0 mm 10,4 km/h (2 Bft) W 270 0 min -3,3 C 13,1 km/h (3 Bft)
25.04.2016 09:40 0,0 C 1,5 C 79 % 1011,8 hPa 0,0 mm 10,4 km/h (2 Bft) W 270 0 min -3,2 C 8,6 km/h (2 Bft)
25.04.2016 09:45 0,3 C 2,2 C 79 % 1011,8 hPa 0,0 mm 11,0 km/h (2 Bft) NW 315 0 min -2,9 C 10,1 km/h (2 Bft)
25.04.2016 09:50 0,4 C 2,2 C 79 % 1011,8 hPa 0,0 mm 11,0 km/h (2 Bft) NW 315 0 min -2,8 C 18,5 km/h (3 Bft)
25.04.2016 09:55 0,5 C 2,8 C 78 % 1011,8 hPa 0,0 mm 14,0 km/h (3 Bft) N-NO 22 0 min -2,9 C 27,4 km/h (4 Bft)
25.04.2016 10:00 0,4 C 2,7 C 78 % 1011,8 hPa 0,0 mm 12,2 km/h (2 Bft) W-SW 247 0 min -3,0 C 6,3 km/h (2 Bft)
25.04.2016 10:05 1,3 C 6,0 C 77 % 1011,8 hPa 0,0 mm 8,9 km/h (2 Bft) W 270 0 min -2,3 C 19,4 km/h (3 Bft)
25.04.2016 10:10 1,4 C 6,9 C 77 % 1011,8 hPa 0,0 mm 8,0 km/h (2 Bft) W-SW 247 5 min -2,2 C 12,5 km/h (3 Bft)
25.04.2016 10:15 0,6 C 4,4 C 76 % 1012,1 hPa 0,0 mm 8,6 km/h (2 Bft) W-SW 247 0 min -3,1 C 6,0 km/h (2 Bft)
25.04.2016 10:20 0,4 C 3,3 C 76 % 1012,1 hPa 0,0 mm 7,7 km/h (2 Bft) W 270 0 min -3,3 C 11,0 km/h (2 Bft)
25.04.2016 10:25 1,0 C 4,8 C 76 % 1012,1 hPa 0,0 mm 9,8 km/h (2 Bft) SW 225 0 min -2,7 C 16,7 km/h (3 Bft)
25.04.2016 10:30 1,5 C 5,8 C 76 % 1012,1 hPa 0,0 mm 10,1 km/h (2 Bft) SW 225 0 min -2,3 C 14,3 km/h (3 Bft)
25.04.2016 10:35 1,8 C 7,7 C 76 % 1012,3 hPa 0,0 mm 9,8 km/h (2 Bft) W 270 5 min -2,0 C 16,1 km/h (3 Bft)
25.04.2016 10:40 1,5 C 6,1 C 75 % 1012,3 hPa 0,0 mm 12,2 km/h (2 Bft) W 270 5 min -2,4 C 22,7 km/h (4 Bft)
25.04.2016 10:45 0,8 C 3,8 C 75 % 1012,3 hPa 0,0 mm 13,1 km/h (3 Bft) W-SW 247 0 min -3,1 C 28,6 km/h (4 Bft)
25.04.2016 10:50 0,2 C 3,5 C 75 % 1012,3 hPa 0,0 mm 14,3 km/h (3 Bft) S-SW 202 5 min -3,7 C 36,4 km/h (5 Bft)
25.04.2016 10:55 -0,2 C 1,3 C 75 % 1012,9 hPa 0,0 mm 14,3 km/h (3 Bft) SW 225 0 min -4,1 C 25,9 km/h (4 Bft)
25.04.2016 11:00 0,2 C 2,8 C 76 % 1012,9 hPa 0,0 mm 12,2 km/h (2 Bft) W-NW 292 0 min -3,5 C 11,0 km/h (2 Bft)
25.04.2016 11:05 1,1 C 4,4 C 76 % 1012,9 hPa 0,0 mm 14,6 km/h (3 Bft) W-NW 292 0 min -2,6 C 41,4 km/h (6 Bft)
25.04.2016 11:10 1,6 C 5,4 C 76 % 1012,9 hPa 0,0 mm 14,0 km/h (3 Bft) W 270 0 min -2,2 C 21,5 km/h (4 Bft)
25.04.2016 11:15 1,9 C 7,4 C 75 % 1012,9 hPa 0,0 mm 14,6 km/h (3 Bft) W-SW 247 5 min -2,1 C 20,6 km/h (4 Bft)
25.04.2016 11:18 1,4 C 7,1 C 74 % 1012,9 hPa 0,0 mm 15,2 km/h (3 Bft) W 270 3 min -2,7 C 22,9 km/h (4 Bft)
25.04.2016 11:21 1,4 C 6,0 C 74 % 1012,9 hPa 0,0 mm 15,2 km/h (3 Bft) W 270 3 min -2,7 C 22,9 km/h (4 Bft)
25.04.2016 11:25 0,8 C 4,2 C 74 % 1012,9 hPa 0,0 mm 15,2 km/h (3 Bft) W-NW 292 4 min -3,3 C 14,3 km/h (3 Bft)
25.04.2016 11:30 0,8 C 2,5 C 75 % 1012,9 hPa 0,0 mm 14,3 km/h (3 Bft) SW 225 0 min -3,1 C 17,3 km/h (3 Bft)
25.04.2016 11:35 1,1 C 2,8 C 74 % 1013,0 hPa 0,7 mm 12,8 km/h (3 Bft) W-NW 292 0 min -3,0 C 13,4 km/h (3 Bft)
25.04.2016 11:40 1,3 C 3,1 C 74 % 1013,0 hPa 0,7 mm 11,6 km/h (2 Bft) W 270 0 min -2,8 C 14,9 km/h (3 Bft)
25.04.2016 11:45 1,0 C 2,7 C 74 % 1013,0 hPa 0,0 mm 8,9 km/h (2 Bft) W 270 0 min -3,1 C 16,4 km/h (3 Bft)
25.04.2016 11:50 1,1 C 2,8 C 74 % 1013,0 hPa 0,0 mm 9,2 km/h (2 Bft) N-NW 337 0 min -3,0 C 17,3 km/h (3 Bft)
25.04.2016 11:55 1,9 C 5,7 C 74 % 1012,7 hPa 0,7 mm 8,9 km/h (2 Bft) W 270 0 min -2,2 C 11,9 km/h (2 Bft)
25.04.2016 12:00 2,6 C 8,4 C 74 % 1012,7 hPa 0,0 mm 8,6 km/h (2 Bft) W 270 0 min -1,6 C 6,9 km/h (2 Bft)
25.04.2016 12:05 2,8 C 10,1 C 73 % 1012,7 hPa 0,7 mm 9,8 km/h (2 Bft) S-SW 202 5 min -1,5 C 19,4 km/h (3 Bft)
25.04.2016 12:10 2,9 C 9,2 C 72 % 1012,7 hPa 0,0 mm 11,0 km/h (2 Bft) W-NW 292 5 min -1,6 C 17,3 km/h (3 Bft)
25.04.2016 12:15 2,7 C 9,7 C 71 % 1012,9 hPa 0,7 mm 12,5 km/h (3 Bft) W-SW 247 5 min -2,0 C 16,1 km/h (3 Bft)
25.04.2016 12:20 2,7 C 8,8 C 71 % 1012,9 hPa 0,7 mm 13,1 km/h (3 Bft) SW 225 5 min -2,0 C 11,0 km/h (2 Bft)
25.04.2016 12:25 2,7 C 7,8 C 71 % 1012,9 hPa 0,0 mm 12,8 km/h (3 Bft) SW 225 5 min -2,0 C 15,8 km/h (3 Bft)
25.04.2016 12:30 2,5 C 6,9 C 70 % 1012,9 hPa 0,0 mm 12,5 km/h (3 Bft) W-NW 292 5 min -2,4 C 14,6 km/h (3 Bft)
25.04.2016 12:35 1,7 C 3,4 C 70 % 1012,9 hPa 0,0 mm 12,2 km/h (2 Bft) W-SW 247 0 min -3,2 C 14,0 km/h (3 Bft)
25.04.2016 12:40 1,4 C 1,7 C 71 % 1012,9 hPa 0,0 mm 10,1 km/h (2 Bft) W-SW 247 0 min -3,3 C 17,3 km/h (3 Bft)
25.04.2016 12:45 1,4 C 2,0 C 71 % 1012,9 hPa 0,7 mm 7,5 km/h (2 Bft) W-SW 247 0 min -3,3 C 10,7 km/h (2 Bft)
25.04.2016 12:50 1,5 C 2,1 C 72 % 1012,9 hPa 0,0 mm 7,2 km/h (2 Bft) W 270 0 min -3,0 C 4,2 km/h (1 Bft)
25.04.2016 12:55 0,8 C 0,5 C 72 % 1012,8 hPa 0,0 mm 12,2 km/h (2 Bft) W 270 0 min -3,7 C 29,2 km/h (5 Bft)
25.04.2016 13:00 0,5 C -0,1 C 72 % 1012,8 hPa 0,0 mm 13,4 km/h (3 Bft) W-SW 247 0 min -3,9 C 32,8 km/h (5 Bft)
25.04.2016 13:05 0,0 C -0,7 C 73 % 1012,8 hPa 0,0 mm 14,0 km/h (3 Bft) W-NW 292 0 min -4,2 C 10,7 km/h (2 Bft)
25.04.2016 13:10 -0,1 C -0,6 C 74 % 1012,8 hPa 0,0 mm 12,5 km/h (3 Bft) W 270 0 min -4,2 C 14,3 km/h (3 Bft)
25.04.2016 13:15 -0,5 C -0,7 C 76 % 1012,7 hPa 0,0 mm 14,6 km/h (3 Bft) W-NW 292 0 min -4,2 C 28,0 km/h (4 Bft)
25.04.2016 13:20 -0,5 C -0,3 C 76 % 1012,7 hPa 0,0 mm 16,7 km/h (3 Bft) W 270 0 min -4,2 C 17,9 km/h (3 Bft)
25.04.2016 13:25 -0,1 C 0,9 C 77 % 1012,7 hPa 0,0 mm 15,2 km/h (3 Bft) W-NW 292 0 min -3,6 C 25,9 km/h (4 Bft)
25.04.2016 13:30 0,4 C 1,7 C 77 % 1012,7 hPa 0,0 mm 13,7 km/h (3 Bft) S-SO 157 0 min -3,1 C 6,6 km/h (2 Bft)
25.04.2016 13:35 0,4 C 1,2 C 77 % 1012,3 hPa 0,0 mm 13,1 km/h (3 Bft) W 270 0 min -3,1 C 19,4 km/h (3 Bft)
25.04.2016 13:40 0,2 C 0,2 C 77 % 1012,3 hPa 0,0 mm 13,4 km/h (3 Bft) W 270 0 min -3,3 C 21,2 km/h (4 Bft)
25.04.2016 13:45 -0,1 C 0,4 C 78 % 1012,3 hPa 0,0 mm 14,9 km/h (3 Bft) W 270 0 min -3,5 C 10,4 km/h (2 Bft)
25.04.2016 13:50 -0,1 C 0,3 C 78 % 1012,3 hPa 0,0 mm 15,5 km/h (3 Bft) W-NW 292 0 min -3,5 C 25,6 km/h (4 Bft)
25.04.2016 13:55 -0,1 C -0,2 C 78 % 1012,2 hPa 0,0 mm 18,2 km/h (3 Bft) N-NW 337 0 min -3,5 C 20,9 km/h (4 Bft)
25.04.2016 14:00 -0,3 C -0,3 C 78 % 1012,2 hPa 0,0 mm 20,3 km/h (4 Bft) W 270 0 min -3,7 C 25,3 km/h (4 Bft)
25.04.2016 14:05 0,2 C 1,5 C 79 % 1012,2 hPa 0,7 mm 16,7 km/h (3 Bft) W 270 0 min -3,0 C 12,5 km/h (3 Bft)
25.04.2016 14:10 0,7 C 2,8 C 79 % 1012,2 hPa 0,0 mm 15,5 km/h (3 Bft) SW 225 0 min -2,5 C 11,9 km/h (2 Bft)
25.04.2016 14:15 1,4 C 3,9 C 79 % 1011,8 hPa 0,0 mm 14,3 km/h (3 Bft) W 270 0 min -1,8 C 15,5 km/h (3 Bft)
25.04.2016 14:20 1,6 C 5,0 C 79 % 1011,8 hPa 0,0 mm 15,5 km/h (3 Bft) W-NW 292 0 min -1,6 C 30,1 km/h (5 Bft)
25.04.2016 14:22 1,6 C 4,5 C 79 % 1011,8 hPa 0,0 mm 15,5 km/h (3 Bft) W-NW 292 0 min -1,6 C 30,1 km/h (5 Bft)
25.04.2016 14:25 1,9 C 5,5 C 78 % 1011,8 hPa 0,0 mm 14,6 km/h (3 Bft) W-SW 247 0 min -1,5 C 21,2 km/h (4 Bft)
25.04.2016 14:30 1,9 C 5,4 C 78 % 1011,8 hPa 0,0 mm 13,1 km/h (3 Bft) W-SW 247 0 min -1,5 C 10,7 km/h (2 Bft)
25.04.2016 14:35 1,8 C 4,7 C 77 % 1012,0 hPa 0,0 mm 12,8 km/h (3 Bft) S-SW 202 0 min -1,8 C 16,7 km/h (3 Bft)
25.04.2016 14:40 2,4 C 5,3 C 77 % 1012,0 hPa 0,0 mm 13,4 km/h (3 Bft) W-SW 247 0 min -1,2 C 24,7 km/h (4 Bft)
25.04.2016 14:45 2,4 C 5,8 C 76 % 1012,0 hPa 0,0 mm 11,6 km/h (2 Bft) W-NW 292 0 min -1,4 C 6,9 km/h (2 Bft)
25.04.2016 14:50 2,5 C 5,8 C 76 % 1012,0 hPa 0,0 mm 11,6 km/h (2 Bft) NW 315 0 min -1,3 C 16,7 km/h (3 Bft)
25.04.2016 14:55 2,6 C 5,8 C 75 % 1012,0 hPa 0,0 mm 12,5 km/h (3 Bft) W 270 0 min -1,4 C 43,2 km/h (6 Bft)
25.04.2016 15:00 2,8 C 6,2 C 75 % 1012,0 hPa 0,0 mm 13,1 km/h (3 Bft) S 180 0 min -1,2 C 20,3 km/h (4 Bft)
25.04.2016 15:05 2,8 C 6,0 C 74 % 1012,0 hPa 0,0 mm 14,0 km/h (3 Bft) SW 225 0 min -1,4 C 16,1 km/h (3 Bft)
25.04.2016 15:10 2,9 C 6,0 C 74 % 1012,0 hPa 0,0 mm 14,3 km/h (3 Bft) W 270 0 min -1,3 C 23,5 km/h (4 Bft)
25.04.2016 15:15 2,7 C 5,9 C 73 % 1011,9 hPa 0,0 mm 14,9 km/h (3 Bft) W 270 5 min -1,6 C 28,3 km/h (4 Bft)
25.04.2016 15:20 2,7 C 5,3 C 73 % 1011,9 hPa 0,0 mm 15,8 km/h (3 Bft) NW 315 0 min -1,6 C 26,5 km/h (4 Bft)
25.04.2016 15:25 2,5 C 4,8 C 72 % 1011,9 hPa 0,0 mm 17,3 km/h (3 Bft) W-SW 247 0 min -2,0 C 20,6 km/h (4 Bft)
25.04.2016 15:30 2,7 C 4,5 C 73 % 1011,9 hPa 0,0 mm 16,7 km/h (3 Bft) W-SW 247 0 min -1,6 C 17,9 km/h (3 Bft)
25.04.2016 15:35 3,3 C 5,4 C 72 % 1011,6 hPa 0,0 mm 14,3 km/h (3 Bft) NW 315 0 min -1,3 C 22,1 km/h (4 Bft)
25.04.2016 15:40 3,4 C 6,1 C 71 % 1011,6 hPa 0,0 mm 14,6 km/h (3 Bft) W-NW 292 0 min -1,3 C 14,9 km/h (3 Bft)
25.04.2016 15:45 3,8 C 6,5 C 71 % 1011,6 hPa 0,0 mm 13,7 km/h (3 Bft) SW 225 0 min -1,0 C 11,9 km/h (2 Bft)
25.04.2016 15:50 3,8 C 7,0 C 70 % 1011,6 hPa 0,0 mm 12,8 km/h (3 Bft) W-SW 247 5 min -1,2 C 10,7 km/h (2 Bft)
25.04.2016 15:55 3,3 C 6,2 C 68 % 1011,2 hPa 0,0 mm 16,1 km/h (3 Bft) W-NW 292 5 min -2,0 C 11,3 km/h (2 Bft)
25.04.2016 16:00 3,1 C 5,2 C 68 % 1011,2 hPa 0,0 mm 17,0 km/h (3 Bft) W-SW 247 0 min -2,2 C 22,1 km/h (4 Bft)
25.04.2016 16:05 3,3 C 5,1 C 68 % 1011,2 hPa 0,0 mm 14,3 km/h (3 Bft) S 180 0 min -2,0 C 14,0 km/h (3 Bft)
25.04.2016 16:10 2,9 C 5,0 C 68 % 1011,2 hPa 0,0 mm 16,4 km/h (3 Bft) W-NW 292 0 min -2,4 C 29,5 km/h (5 Bft)
25.04.2016 16:15 2,9 C 3,5 C 68 % 1011,1 hPa 0,0 mm 14,0 km/h (3 Bft) W 270 0 min -2,4 C 8,9 km/h (2 Bft)
25.04.2016 16:20 3,4 C 4,8 C 68 % 1011,1 hPa 0,0 mm 11,3 km/h (2 Bft) W-NW 292 0 min -1,9 C 18,8 km/h (3 Bft)
25.04.2016 16:25 3,7 C 6,8 C 68 % 1011,1 hPa 0,0 mm 11,0 km/h (2 Bft) NW 315 0 min -1,6 C 20,0 km/h (4 Bft)
25.04.2016 16:30 3,8 C 7,0 C 67 % 1011,1 hPa 0,0 mm 12,2 km/h (2 Bft) NW 315 5 min -1,8 C 18,8 km/h (3 Bft)
25.04.2016 16:35 3,9 C 7,6 C 66 % 1010,5 hPa 0,0 mm 15,2 km/h (3 Bft) W-NW 292 5 min -1,9 C 14,0 km/h (3 Bft)
25.04.2016 16:40 3,9 C 7,3 C 65 % 1010,5 hPa 0,0 mm 15,5 km/h (3 Bft) W 270 5 min -2,1 C 37,9 km/h (5 Bft)
25.04.2016 16:45 3,9 C 6,9 C 64 % 1010,5 hPa 0,0 mm 17,0 km/h (3 Bft) W-SW 247 5 min -2,3 C 21,2 km/h (4 Bft)
25.04.2016 16:48 4,1 C 6,1 C 63 % 1010,5 hPa 0,0 mm 17,6 km/h (3 Bft) NW 315 0 min -2,3 C 23,2 km/h (4 Bft)
25.04.2016 16:51 4,1 C 5,4 C 63 % 1010,5 hPa 0,0 mm 17,6 km/h (3 Bft) NW 315 0 min -2,3 C 23,2 km/h (4 Bft)
25.04.2016 16:55 3,9 C 5,4 C 63 % 1010,4 hPa 0,0 mm 14,9 km/h (3 Bft) W 270 0 min -2,5 C 28,9 km/h (5 Bft)
25.04.2016 17:00 3,9 C 5,0 C 62 % 1010,4 hPa 0,0 mm 16,7 km/h (3 Bft) W-SW 247 0 min -2,7 C 24,1 km/h (4 Bft)
25.04.2016 17:05 3,9 C 4,6 C 61 % 1010,4 hPa 0,0 mm 16,4 km/h (3 Bft) W-NW 292 0 min -2,9 C 15,8 km/h (3 Bft)
25.04.2016 17:10 4,1 C 4,2 C 60 % 1010,4 hPa 0,0 mm 16,4 km/h (3 Bft) SW 225 0 min -3,0 C 24,4 km/h (4 Bft)
25.04.2016 17:15 3,9 C 4,3 C 59 % 1010,4 hPa 0,0 mm 14,9 km/h (3 Bft) O-SO 112 0 min -3,4 C 15,2 km/h (3 Bft)
25.04.2016 17:20 3,8 C 4,1 C 60 % 1010,4 hPa 0,0 mm 14,6 km/h (3 Bft) W 270 0 min -3,2 C 21,8 km/h (4 Bft)
25.04.2016 17:25 3,5 C 3,7 C 59 % 1010,4 hPa 0,0 mm 16,4 km/h (3 Bft) W-SW 247 0 min -3,7 C 17,9 km/h (3 Bft)
25.04.2016 17:30 3,6 C 3,7 C 59 % 1010,4 hPa 0,0 mm 16,7 km/h (3 Bft) W-NW 292 0 min -3,6 C 23,5 km/h (4 Bft)
25.04.2016 17:35 3,7 C 3,7 C 60 % 1010,1 hPa 0,0 mm 14,3 km/h (3 Bft) W-SW 247 0 min -3,3 C 11,6 km/h (2 Bft)
25.04.2016 17:40 3,7 C 3,6 C 60 % 1010,1 hPa 0,0 mm 15,2 km/h (3 Bft) W-NW 292 0 min -3,3 C 23,2 km/h (4 Bft)
25.04.2016 17:45 3,8 C 3,6 C 60 % 1010,1 hPa 0,0 mm 13,1 km/h (3 Bft) W-SW 247 0 min -3,2 C 16,7 km/h (3 Bft)
25.04.2016 17:50 3,8 C 3,7 C 60 % 1010,1 hPa 0,0 mm 13,4 km/h (3 Bft) W-SW 247 0 min -3,2 C 17,9 km/h (3 Bft)
25.04.2016 17:55 3,7 C 3,7 C 59 % 1009,9 hPa 0,0 mm 16,7 km/h (3 Bft) W-NW 292 0 min -3,6 C 23,8 km/h (4 Bft)
25.04.2016 18:00 3,7 C 3,8 C 59 % 1009,9 hPa 0,0 mm 17,3 km/h (3 Bft) W 270 0 min -3,6 C 14,0 km/h (3 Bft)
25.04.2016 18:05 3,8 C 3,9 C 59 % 1009,9 hPa 0,0 mm 16,4 km/h (3 Bft) SW 225 0 min -3,5 C 13,7 km/h (3 Bft)
25.04.2016 18:10 3,8 C 3,9 C 58 % 1009,9 hPa 0,0 mm 16,7 km/h (3 Bft) W-SW 247 0 min -3,7 C 24,7 km/h (4 Bft)
25.04.2016 18:15 3,7 C 3,8 C 58 % 1009,8 hPa 0,0 mm 17,9 km/h (3 Bft) W-SW 247 0 min -3,8 C 17,3 km/h (3 Bft)
25.04.2016 18:20 3,6 C 3,6 C 58 % 1009,8 hPa 0,0 mm 18,2 km/h (3 Bft) W-NW 292 0 min -3,9 C 18,8 km/h (3 Bft)
25.04.2016 18:25 3,5 C 3,3 C 58 % 1009,8 hPa 0,0 mm 17,9 km/h (3 Bft) NW 315 0 min -4,0 C 17,9 km/h (3 Bft)
25.04.2016 18:30 3,4 C 3,2 C 58 % 1009,8 hPa 0,0 mm 17,3 km/h (3 Bft) W 270 0 min -4,1 C 19,4 km/h (3 Bft)
25.04.2016 18:35 3,6 C 3,6 C 58 % 1009,7 hPa 0,0 mm 13,1 km/h (3 Bft) W-NW 292 0 min -3,9 C 14,9 km/h (3 Bft)
25.04.2016 18:40 3,7 C 4,0 C 58 % 1009,7 hPa 0,0 mm 14,9 km/h (3 Bft) W-SW 247 0 min -3,8 C 26,5 km/h (4 Bft)
25.04.2016 18:45 3,8 C 3,9 C 58 % 1009,7 hPa 0,0 mm 16,4 km/h (3 Bft) W 270 0 min -3,7 C 20,6 km/h (4 Bft)
25.04.2016 18:50 3,9 C 3,9 C 57 % 1009,7 hPa 0,0 mm 16,4 km/h (3 Bft) W-NW 292 0 min -3,8 C 20,3 km/h (4 Bft)
25.04.2016 18:55 3,8 C 3,6 C 58 % 1009,6 hPa 0,0 mm 13,7 km/h (3 Bft) W 270 0 min -3,7 C 9,2 km/h (2 Bft)
25.04.2016 19:00 3,4 C 3,1 C 58 % 1009,6 hPa 0,0 mm 12,8 km/h (3 Bft) NW 315 0 min -4,1 C 13,7 km/h (3 Bft)
25.04.2016 19:05 3,5 C 3,1 C 58 % 1009,6 hPa 0,0 mm 13,1 km/h (3 Bft) W 270 0 min -4,0 C 19,1 km/h (3 Bft)
25.04.2016 19:10 3,5 C 3,2 C 58 % 1009,6 hPa 0,0 mm 13,7 km/h (3 Bft) W-SW 247 0 min -4,0 C 16,1 km/h (3 Bft)
25.04.2016 19:15 3,0 C 2,9 C 58 % 1009,4 hPa 0,0 mm 12,5 km/h (3 Bft) W-NW 292 0 min -4,4 C 10,7 km/h (2 Bft)
25.04.2016 19:20 2,8 C 2,5 C 58 % 1009,4 hPa 0,0 mm 11,6 km/h (2 Bft) W-NW 292 0 min -4,6 C 9,5 km/h (2 Bft)
25.04.2016 19:25 2,8 C 2,5 C 58 % 1009,4 hPa 0,0 mm 10,4 km/h (2 Bft) SW 225 0 min -4,6 C 14,0 km/h (3 Bft)
25.04.2016 19:30 2,7 C 2,5 C 59 % 1009,4 hPa 0,0 mm 10,1 km/h (2 Bft) S-SW 202 0 min -4,5 C 9,8 km/h (2 Bft)
25.04.2016 19:35 2,6 C 2,5 C 59 % 1009,4 hPa 0,0 mm 8,6 km/h (2 Bft) O-NO 67 0 min -4,6 C 6,3 km/h (2 Bft)
25.04.2016 19:40 2,3 C 2,5 C 59 % 1009,4 hPa 0,0 mm 7,2 km/h (2 Bft) W-SW 247 0 min -4,9 C 3,9 km/h (1 Bft)
25.04.2016 19:45 2,1 C 2,0 C 59 % 1009,4 hPa 0,0 mm 6,6 km/h (2 Bft) S 180 0 min -5,1 C 8,9 km/h (2 Bft)
25.04.2016 19:50 2,1 C 2,1 C 59 % 1009,4 hPa 0,0 mm 6,6 km/h (2 Bft) W-SW 247 0 min -5,1 C 6,3 km/h (2 Bft)
25.04.2016 19:52 2,1 C 2,1 C 59 % 1009,4 hPa 0,0 mm 6,6 km/h (2 Bft) W-SW 247 0 min -5,1 C 6,3 km/h (2 Bft)
25.04.2016 19:55 2,0 C 2,4 C 61 % 1009,3 hPa 0,0 mm 5,4 km/h (1 Bft) S-SW 202 0 min -4,7 C 8,6 km/h (2 Bft)
25.04.2016 20:00 1,8 C 1,7 C 61 % 1009,3 hPa 0,0 mm 6,6 km/h (2 Bft) SW 225 0 min -4,9 C 12,5 km/h (3 Bft)
25.04.2016 20:05 1,7 C 1,2 C 61 % 1009,3 hPa 0,0 mm 8,3 km/h (2 Bft) S 180 0 min -5,0 C 8,6 km/h (2 Bft)
25.04.2016 20:10 1,5 C 1,1 C 62 % 1009,3 hPa 0,0 mm 7,5 km/h (2 Bft) W-NW 292 0 min -5,0 C 3,3 km/h (1 Bft)
25.04.2016 20:15 1,3 C 0,8 C 62 % 1009,1 hPa 0,0 mm 6,0 km/h (2 Bft) SW 225 0 min -5,2 C 6,6 km/h (2 Bft)
25.04.2016 20:20 1,2 C 0,7 C 63 % 1009,1 hPa 0,0 mm 6,9 km/h (2 Bft) SW 225 0 min -5,0 C 10,4 km/h (2 Bft)
25.04.2016 20:25 1,2 C 0,4 C 63 % 1009,1 hPa 0,0 mm 8,0 km/h (2 Bft) W-SW 247 0 min -5,0 C 9,5 km/h (2 Bft)
25.04.2016 20:30 1,1 C 0,3 C 63 % 1009,1 hPa 0,0 mm 8,0 km/h (2 Bft) W-NW 292 0 min -5,1 C 8,6 km/h (2 Bft)
25.04.2016 20:35 0,9 C 0,2 C 63 % 1009,1 hPa 0,0 mm 7,2 km/h (2 Bft) W-SW 247 0 min -5,3 C 6,9 km/h (2 Bft)
25.04.2016 20:40 0,9 C 0,2 C 63 % 1009,1 hPa 0,0 mm 7,2 km/h (2 Bft) SW 225 0 min -5,3 C 9,8 km/h (2 Bft)
25.04.2016 20:45 0,9 C 0,0 C 63 % 1009,1 hPa 0,0 mm 8,0 km/h (2 Bft) S 180 0 min -5,3 C 8,0 km/h (2 Bft)
25.04.2016 20:50 0,7 C -0,1 C 63 % 1009,1 hPa 0,0 mm 8,3 km/h (2 Bft) S-SW 202 0 min -5,5 C 8,9 km/h (2 Bft)
25.04.2016 20:55 0,3 C -0,1 C 64 % 1008,9 hPa 0,0 mm 4,8 km/h (1 Bft) SW 225 0 min -5,7 C 4,2 km/h (1 Bft)
25.04.2016 21:00 0,3 C -0,1 C 65 % 1008,9 hPa 0,0 mm 3,9 km/h (1 Bft) S 180 0 min -5,5 C 4,8 km/h (1 Bft)
25.04.2016 21:05 0,2 C -0,3 C 66 % 1008,9 hPa 0,0 mm 4,5 km/h (1 Bft) W-SW 247 0 min -5,4 C 7,5 km/h (2 Bft)
25.04.2016 21:10 0,1 C -0,3 C 66 % 1008,9 hPa 0,0 mm 4,5 km/h (1 Bft) SW 225 0 min -5,5 C 3,9 km/h (1 Bft)
25.04.2016 21:15 -0,1 C -0,5 C 68 % 1008,9 hPa 0,0 mm 2,1 km/h (1 Bft) SO 135 0 min -5,3 C 0,0 km/h (0 Bft)
25.04.2016 21:20 -0,2 C -0,7 C 69 % 1008,9 hPa 0,0 mm 0,9 km/h (0 Bft) W-SW 247 0 min -5,2 C 5,4 km/h (1 Bft)
25.04.2016 21:25 -0,3 C -0,7 C 69 % 1008,9 hPa 0,0 mm 2,1 km/h (1 Bft) SO 135 0 min -5,3 C 0,0 km/h (0 Bft)
25.04.2016 21:30 -0,3 C -0,8 C 69 % 1008,9 hPa 0,0 mm 3,0 km/h (1 Bft) SW 225 0 min -5,3 C 9,2 km/h (2 Bft)
25.04.2016 21:35 -0,3 C -0,7 C 70 % 1008,8 hPa 0,0 mm 4,5 km/h (1 Bft) S 180 0 min -5,1 C 0,0 km/h (0 Bft)
25.04.2016 21:40 -0,2 C -0,8 C 71 % 1008,8 hPa 0,0 mm 5,4 km/h (1 Bft) SW 225 0 min -4,8 C 6,0 km/h (2 Bft)
25.04.2016 21:45 0,0 C -0,5 C 70 % 1008,8 hPa 0,0 mm 5,1 km/h (1 Bft) S-SW 202 0 min -4,8 C 4,5 km/h (1 Bft)
25.04.2016 21:50 0,2 C -0,4 C 69 % 1008,8 hPa 0,0 mm 5,4 km/h (1 Bft) W-SW 247 0 min -4,8 C 3,3 km/h (1 Bft)
25.04.2016 21:55 0,2 C -0,2 C 69 % 1008,7 hPa 0,0 mm 3,9 km/h (1 Bft) SW 225 0 min -4,8 C 6,3 km/h (2 Bft)
25.04.2016 22:00 0,1 C -0,2 C 69 % 1008,7 hPa 0,0 mm 3,9 km/h (1 Bft) W-SW 247 0 min -4,9 C 0,0 km/h (0 Bft)
25.04.2016 22:05 0,0 C -0,3 C 69 % 1008,7 hPa 0,0 mm 3,6 km/h (1 Bft) SW 225 0 min -5,0 C 5,1 km/h (1 Bft)
25.04.2016 22:10 0,1 C -0,3 C 69 % 1008,7 hPa 0,0 mm 3,3 km/h (1 Bft) S-SO 157 0 min -4,9 C 7,7 km/h (2 Bft)
25.04.2016 22:15 0,2 C -0,3 C 69 % 1008,4 hPa 0,0 mm 5,4 km/h (1 Bft) W-SW 247 0 min -4,8 C 9,2 km/h (2 Bft)
25.04.2016 22:20 0,2 C -0,3 C 69 % 1008,4 hPa 0,0 mm 5,4 km/h (1 Bft) W-SW 247 0 min -4,8 C 8,0 km/h (2 Bft)
25.04.2016 22:25 0,4 C -0,2 C 68 % 1008,4 hPa 0,0 mm 6,0 km/h (2 Bft) SW 225 0 min -4,8 C 9,8 km/h (2 Bft)
25.04.2016 22:30 0,3 C -0,3 C 68 % 1008,4 hPa 0,0 mm 6,3 km/h (2 Bft) SW 225 0 min -4,9 C 4,8 km/h (1 Bft)
25.04.2016 22:35 0,4 C -0,2 C 68 % 1008,4 hPa 0,0 mm 6,3 km/h (2 Bft) W-SW 247 0 min -4,8 C 5,4 km/h (1 Bft)
25.04.2016 22:40 0,4 C -0,3 C 68 % 1008,4 hPa 0,0 mm 7,2 km/h (2 Bft) SW 225 0 min -4,8 C 9,2 km/h (2 Bft)
25.04.2016 22:45 0,4 C -0,4 C 68 % 1008,4 hPa 0,0 mm 7,5 km/h (2 Bft) SW 225 0 min -4,8 C 8,6 km/h (2 Bft)
25.04.2016 22:50 0,3 C -0,4 C 68 % 1008,4 hPa 0,0 mm 7,2 km/h (2 Bft) W-SW 247 0 min -4,9 C 5,7 km/h (1 Bft)
25.04.2016 22:53 0,4 C -0,4 C 68 % 1008,3 hPa 0,0 mm 7,5 km/h (2 Bft) W-SW 247 0 min -4,8 C 10,1 km/h (2 Bft)
25.04.2016 22:55 0,4 C -0,4 C 68 % 1008,3 hPa 0,0 mm 7,5 km/h (2 Bft) W-SW 247 0 min -4,8 C 10,1 km/h (2 Bft)
25.04.2016 23:00 0,5 C -0,4 C 68 % 1008,3 hPa 0,0 mm 8,0 km/h (2 Bft) S-SW 202 0 min -4,7 C 14,0 km/h (3 Bft)
25.04.2016 23:05 0,5 C -0,4 C 68 % 1008,3 hPa 0,0 mm 8,9 km/h (2 Bft) W-SW 247 0 min -4,7 C 9,8 km/h (2 Bft)
25.04.2016 23:10 0,5 C -0,4 C 68 % 1008,3 hPa 0,0 mm 8,6 km/h (2 Bft) W-SW 247 0 min -4,7 C 6,6 km/h (2 Bft)
25.04.2016 23:15 0,5 C -0,4 C 67 % 1008,2 hPa 0,0 mm 8,9 km/h (2 Bft) SW 225 0 min -4,9 C 6,9 km/h (2 Bft)
25.04.2016 23:20 0,5 C -0,4 C 67 % 1008,2 hPa 0,0 mm 8,9 km/h (2 Bft) SW 225 0 min -4,9 C 17,9 km/h (3 Bft)
25.04.2016 23:25 0,5 C -0,4 C 67 % 1008,2 hPa 0,0 mm 8,9 km/h (2 Bft) W 270 0 min -4,9 C 13,1 km/h (3 Bft)
25.04.2016 23:30 0,5 C -0,4 C 67 % 1008,2 hPa 0,0 mm 8,6 km/h (2 Bft) S-SW 202 0 min -4,9 C 12,8 km/h (3 Bft)
25.04.2016 23:35 0,5 C -0,4 C 67 % 1008,1 hPa 0,0 mm 8,3 km/h (2 Bft) SW 225 0 min -4,9 C 11,9 km/h (2 Bft)
25.04.2016 23:40 0,4 C -0,4 C 67 % 1008,1 hPa 0,0 mm 7,7 km/h (2 Bft) SW 225 0 min -5,0 C 7,2 km/h (2 Bft)
25.04.2016 23:45 0,4 C -0,5 C 68 % 1008,1 hPa 0,0 mm 8,0 km/h (2 Bft) W-SW 247 0 min -4,8 C 12,2 km/h (2 Bft)
25.04.2016 23:50 0,4 C -0,5 C 68 % 1008,1 hPa 0,0 mm 8,3 km/h (2 Bft) SW 225 0 min -4,8 C 9,5 km/h (2 Bft)
25.04.2016 23:55 0,3 C -0,5 C 68 % 1008,0 hPa 0,0 mm 7,2 km/h (2 Bft) SW 225 0 min -4,9 C 3,9 km/h (1 Bft)
_ Min-Zeit 07:00 06:10 18:50 23:55 - 05:25 - - - 20:55 22:00
Minimum _ -1,6 C -2,5 C 57 % 1008,0 hPa - 0,3 km/h (0 Bft) - - - -5,7 C 0,0 km/h (0 Bft)
_ Max-Zeit 17:10 12:05 06:30 11:50 14:05 14:00 - - 16:45 15:45 14:55
Maximum _ 4,1 C 10,1 C 88 % 1013,0 hPa 0,7 mm 20,3 km/h
W (4 Bft)
- - 5 min -1,0 C 43,2 km/h
W (6 Bft)
Durchschnitt _ 0,7 C 1,3 C 76 % 1010,6 hPa #5,5 mm 9,2 km/h (2 Bft) W - #1:40 h -3,2 C 12,4 km/h (3 Bft)